GSPDD LSGG-EGTK

Flight info

Callsign GSPDD
Flight time 1h 15m
Altitude 40000
Route DIPIR T37 IBABA DCT TUTAX DCT OBURO DCT OKRIX/N0456F380 DCT CLM DCT KOPOR DCT SOSUN DCT SUBIP UM733 MAY DCT GOXUL/N0423F240 L9 CPT DCT KENET DCT BUGUP DCT NEDEX
Aircraft CL60/M-SADE3FGHIJ3J4J7P2RWXY/HB1D1

Departure

Time 2026-04-22 19:29
Airport Geneva International Airport (LSGG)

Arrival

Time 2026-04-22 20:45
Airport London Oxford Airport (EGTK)
Time Latitude Longitude Altitude Speed Heading
2026-04-22 19:04 46.23694 6.10023 1396 ft 0 kts 136°
2026-04-22 19:24 46.23680 6.10039 1396 ft 8 kts 151°
2026-04-22 19:24 46.23639 6.10058 1396 ft 3 kts 123°
2026-04-22 19:25 46.23637 6.10064 1396 ft 0 kts 121°
2026-04-22 19:25 46.23637 6.10065 1396 ft 0 kts 126°
2026-04-22 19:26 46.23613 6.10043 1397 ft 5 kts 224°
2026-04-22 19:26 46.23558 6.09975 1399 ft 14 kts 223°
2026-04-22 19:26 46.23484 6.09882 1400 ft 10 kts 177°
2026-04-22 19:26 46.23430 6.09942 1400 ft 4 kts 136°
2026-04-22 19:27 46.23397 6.09989 1399 ft 8 kts 135°
2026-04-22 19:27 46.23381 6.10013 1399 ft 0 kts 135°
2026-04-22 19:28 46.23341 6.10070 1398 ft 10 kts 134°
2026-04-22 19:28 46.23309 6.10142 1398 ft 9 kts 80°
2026-04-22 19:28 46.23352 6.10227 1396 ft 12 kts 49°
2026-04-22 19:28 46.23685 6.10722 1387 ft 125 kts 45°
2026-04-22 19:29 46.24417 6.11817 1937 ft 169 kts 46°
2026-04-22 19:29 46.25248 6.13105 2848 ft 174 kts 46°
2026-04-22 19:29 46.25996 6.14196 3486 ft 155 kts 45°
2026-04-22 19:29 46.26904 6.15506 3926 ft 205 kts 45°
2026-04-22 19:30 46.27575 6.16478 4583 ft 216 kts 45°
2026-04-22 19:30 46.28658 6.18064 5603 ft 231 kts 46°
2026-04-22 19:30 46.29837 6.19805 6564 ft 257 kts 46°
2026-04-22 19:30 46.31103 6.21681 7907 ft 268 kts 45°
2026-04-22 19:31 46.32398 6.23603 9314 ft 276 kts 45°
2026-04-22 19:31 46.33725 6.25579 10756 ft 283 kts 45°
2026-04-22 19:31 46.35068 6.27579 12244 ft 286 kts 44°
2026-04-22 19:31 46.36635 6.29260 13657 ft 287 kts 24°
2026-04-22 19:32 46.38551 6.29852 14963 ft 290 kts 357°
2026-04-22 19:32 46.40528 6.29247 16224 ft 294 kts 344°
2026-04-22 19:32 46.42466 6.28441 17500 ft 294 kts 344°
2026-04-22 19:32 46.44434 6.27635 18688 ft 296 kts 343°
2026-04-22 19:33 46.46398 6.26830 19804 ft 298 kts 343°
2026-04-22 19:33 46.48385 6.26015 20900 ft 300 kts 343°
2026-04-22 19:33 46.50389 6.25193 21918 ft 303 kts 342°
2026-04-22 19:33 46.52414 6.24362 22916 ft 305 kts 342°
2026-04-22 19:34 46.54475 6.23517 23868 ft 308 kts 341°
2026-04-22 19:34 46.56517 6.22678 24819 ft 311 kts 341°
2026-04-22 19:34 46.58618 6.21814 25689 ft 315 kts 341°
2026-04-22 19:34 46.60693 6.20830 26528 ft 315 kts 333°
2026-04-22 19:35 46.62457 6.18993 27344 ft 316 kts 315°
2026-04-22 19:35 46.63918 6.16603 28052 ft 320 kts 312°
2026-04-22 19:35 46.64889 6.14980 28550 ft 322 kts 312°
2026-04-22 19:35 46.66850 6.11718 29532 ft 324 kts 312°
2026-04-22 19:36 46.68341 6.09234 30262 ft 325 kts 311°
2026-04-22 19:36 46.69817 6.06775 30892 ft 327 kts 312°
2026-04-22 19:36 46.71311 6.04284 31467 ft 330 kts 311°
2026-04-22 19:36 46.72728 6.01587 31926 ft 337 kts 302°
2026-04-22 19:37 46.73677 5.98434 32384 ft 345 kts 295°
2026-04-22 19:37 46.74495 5.95143 32803 ft 349 kts 294°
2026-04-22 19:37 46.75333 5.91793 33220 ft 353 kts 294°
2026-04-22 19:37 46.76178 5.88420 33611 ft 357 kts 295°
2026-04-22 19:38 46.77022 5.85047 34056 ft 359 kts 295°
2026-04-22 19:38 46.77880 5.81613 34548 ft 359 kts 295°
2026-04-22 19:38 46.78736 5.78187 34976 ft 358 kts 295°
2026-04-22 19:38 46.79591 5.74762 35396 ft 358 kts 295°
2026-04-22 19:39 46.80446 5.71339 35741 ft 359 kts 295°
2026-04-22 19:39 46.81295 5.67933 36098 ft 359 kts 295°
2026-04-22 19:39 46.82145 5.64522 36464 ft 359 kts 294°
2026-04-22 19:39 46.83000 5.61087 36844 ft 361 kts 294°
2026-04-22 19:40 46.83956 5.57698 37228 ft 358 kts 300°
2026-04-22 19:40 46.85212 5.54600 37521 ft 356 kts 308°
2026-04-22 19:40 46.86806 5.51794 37791 ft 356 kts 316°
2026-04-22 19:40 46.88643 5.49401 38045 ft 357 kts 322°
2026-04-22 19:41 46.90577 5.47122 38304 ft 359 kts 321°
2026-04-22 19:41 46.92524 5.44817 38563 ft 360 kts 321°
2026-04-22 19:41 46.94474 5.42506 38817 ft 361 kts 322°
2026-04-22 19:41 46.96425 5.40191 39102 ft 362 kts 321°
2026-04-22 19:42 46.98361 5.37891 39310 ft 363 kts 321°
2026-04-22 19:42 47.00319 5.35564 39528 ft 364 kts 321°
2026-04-22 19:42 47.02305 5.33201 39747 ft 366 kts 321°
2026-04-22 19:42 47.04277 5.30852 40000 ft 366 kts 321°
2026-04-22 19:43 47.08235 5.26131 40156 ft 373 kts 321°
2026-04-22 19:43 47.12252 5.21332 40157 ft 385 kts 321°
2026-04-22 19:44 47.16509 5.16234 40151 ft 396 kts 321°
2026-04-22 19:44 47.20861 5.11012 40147 ft 406 kts 321°
2026-04-22 19:45 47.25254 5.05728 40160 ft 413 kts 321°
2026-04-22 19:45 47.29707 5.00360 40176 ft 415 kts 321°
2026-04-22 19:46 47.34168 4.94971 40163 ft 416 kts 321°
2026-04-22 19:46 47.38643 4.89552 40164 ft 415 kts 321°
2026-04-22 19:47 47.43090 4.84155 40190 ft 415 kts 321°
2026-04-22 19:47 47.47559 4.78718 40180 ft 416 kts 321°
2026-04-22 19:48 47.51999 4.73305 40187 ft 416 kts 321°
2026-04-22 19:48 47.56471 4.67841 40172 ft 416 kts 321°
2026-04-22 19:49 47.60947 4.62359 40171 ft 416 kts 321°
2026-04-22 19:49 47.65377 4.56921 40190 ft 416 kts 321°
2026-04-22 19:50 47.69832 4.51439 40189 ft 416 kts 321°
2026-04-22 19:50 47.74291 4.45942 40192 ft 418 kts 321°
2026-04-22 19:51 47.78763 4.40413 40186 ft 417 kts 321°
2026-04-22 19:51 47.83203 4.34913 40197 ft 416 kts 320°
2026-04-22 19:52 47.87652 4.29387 40192 ft 416 kts 320°
2026-04-22 19:52 47.92084 4.23870 40200 ft 417 kts 321°
2026-04-22 19:53 47.96540 4.18312 40188 ft 419 kts 320°
2026-04-22 19:53 48.01019 4.12712 40202 ft 417 kts 320°
2026-04-22 19:54 48.05434 4.07178 40214 ft 416 kts 320°
2026-04-22 19:54 48.09891 4.01578 40202 ft 418 kts 320°
2026-04-22 19:55 48.14327 3.95993 40181 ft 418 kts 321°
2026-04-22 19:55 48.18794 3.90355 40203 ft 418 kts 321°
2026-04-22 19:56 48.23233 3.84739 40193 ft 419 kts 320°
2026-04-22 19:56 48.27663 3.79122 40207 ft 418 kts 321°
2026-04-22 19:57 48.32106 3.73474 40226 ft 419 kts 320°
2026-04-22 19:57 48.36571 3.67785 40196 ft 419 kts 320°
2026-04-22 19:58 48.41002 3.62126 40214 ft 418 kts 321°
2026-04-22 19:58 48.45428 3.56460 40198 ft 418 kts 320°
2026-04-22 20:00 48.60920 3.36523 40231 ft 420 kts 321°
2026-04-22 20:01 48.65381 3.30750 40241 ft 419 kts 320°
2026-04-22 20:01 48.69831 3.24979 40229 ft 420 kts 320°
2026-04-22 20:02 48.74260 3.19220 40234 ft 420 kts 320°
2026-04-22 20:02 48.78674 3.13467 40226 ft 420 kts 320°
2026-04-22 20:03 48.83084 3.07705 40244 ft 420 kts 320°
2026-04-22 20:03 48.87378 3.02082 40236 ft 420 kts 320°
2026-04-22 20:04 48.91475 2.96706 40247 ft 420 kts 320°
2026-04-22 20:04 48.95892 2.90896 40246 ft 422 kts 320°
2026-04-22 20:05 49.00345 2.85023 40257 ft 426 kts 320°
2026-04-22 20:05 49.04834 2.79088 40269 ft 427 kts 320°
2026-04-22 20:06 49.09318 2.73144 40240 ft 428 kts 320°
2026-04-22 20:06 49.13765 2.67235 40264 ft 428 kts 320°
2026-04-22 20:07 49.18249 2.61261 40246 ft 428 kts 320°
2026-04-22 20:07 49.22740 2.55264 40261 ft 427 kts 320°
2026-04-22 20:08 49.27218 2.49268 40256 ft 427 kts 320°
2026-04-22 20:08 49.31674 2.43287 40244 ft 428 kts 320°
2026-04-22 20:09 49.36149 2.37267 40264 ft 428 kts 320°
2026-04-22 20:09 49.40612 2.31246 40267 ft 428 kts 319°
2026-04-22 20:10 49.45086 2.25196 40253 ft 428 kts 319°
2026-04-22 20:10 49.49564 2.19124 40266 ft 428 kts 319°
2026-04-22 20:11 49.54007 2.13086 40265 ft 428 kts 319°
2026-04-22 20:11 49.58479 2.06991 40265 ft 428 kts 319°
2026-04-22 20:12 49.62925 2.00917 40280 ft 429 kts 319°
2026-04-22 20:12 49.66685 1.95768 40259 ft 429 kts 319°
2026-04-22 20:13 49.71867 1.88654 40277 ft 429 kts 319°
2026-04-22 20:13 49.76336 1.82501 40280 ft 429 kts 319°
2026-04-22 20:14 49.80772 1.76378 40283 ft 430 kts 319°
2026-04-22 20:14 49.85255 1.70175 40286 ft 429 kts 319°
2026-04-22 20:15 49.89686 1.64027 40278 ft 430 kts 319°
2026-04-22 20:15 49.94166 1.57796 40288 ft 430 kts 319°
2026-04-22 20:16 49.98601 1.51615 40277 ft 431 kts 319°
2026-04-22 20:16 50.03115 1.45479 40277 ft 431 kts 320°
2026-04-22 20:17 50.07660 1.39299 40293 ft 432 kts 320°
2026-04-22 20:17 50.12172 1.33149 40285 ft 432 kts 319°
2026-04-22 20:18 50.16680 1.26985 40289 ft 432 kts 319°
2026-04-22 20:18 50.21158 1.20849 40285 ft 432 kts 319°
2026-04-22 20:19 50.25660 1.14662 40303 ft 432 kts 319°
2026-04-22 20:19 50.30191 1.08420 40293 ft 434 kts 319°
2026-04-22 20:20 50.34713 1.02172 40295 ft 435 kts 319°
2026-04-22 20:20 50.39217 0.95934 40292 ft 435 kts 319°
2026-04-22 20:21 50.43758 0.89625 40288 ft 434 kts 319°
2026-04-22 20:21 50.48322 0.83502 40302 ft 434 kts 320°
2026-04-22 20:22 50.52938 0.77384 40299 ft 435 kts 320°
2026-04-22 20:22 50.57549 0.71251 40310 ft 435 kts 320°
2026-04-22 20:22 50.59877 0.68147 40064 ft 441 kts 320°
2026-04-22 20:23 50.62206 0.65038 39550 ft 442 kts 320°
2026-04-22 20:23 50.64549 0.61905 38984 ft 437 kts 320°
2026-04-22 20:23 50.66837 0.58840 38436 ft 434 kts 321°
2026-04-22 20:23 50.69136 0.55758 37858 ft 432 kts 320°
2026-04-22 20:24 50.71415 0.52697 37262 ft 430 kts 321°
2026-04-22 20:24 50.73652 0.49689 36740 ft 428 kts 320°
2026-04-22 20:24 50.75948 0.46597 36197 ft 428 kts 320°
2026-04-22 20:24 50.78222 0.43530 35585 ft 427 kts 321°
2026-04-22 20:25 50.80479 0.40483 35023 ft 425 kts 321°
2026-04-22 20:25 50.82738 0.37429 34413 ft 424 kts 321°
2026-04-22 20:25 50.84974 0.34401 33881 ft 424 kts 320°
2026-04-22 20:25 50.87183 0.31407 33323 ft 423 kts 320°
2026-04-22 20:26 50.89428 0.28359 32768 ft 419 kts 320°
2026-04-22 20:26 50.91619 0.25381 32217 ft 415 kts 320°
2026-04-22 20:26 50.93807 0.22403 31672 ft 411 kts 320°
2026-04-22 20:26 50.95952 0.19479 31135 ft 408 kts 320°
2026-04-22 20:27 50.98087 0.16566 30599 ft 404 kts 321°
2026-04-22 20:27 51.00196 0.13684 30067 ft 401 kts 321°
2026-04-22 20:27 51.02405 0.11011 29553 ft 397 kts 330°
2026-04-22 20:27 51.04826 0.08923 29005 ft 394 kts 333°
2026-04-22 20:28 51.07252 0.06875 28487 ft 392 kts 333°
2026-04-22 20:28 51.09650 0.04838 27973 ft 390 kts 333°
2026-04-22 20:28 51.12032 0.02814 27456 ft 388 kts 333°
2026-04-22 20:28 51.14403 0.00796 26944 ft 387 kts 333°
2026-04-22 20:29 51.16764 -0.01217 26429 ft 385 kts 333°
2026-04-22 20:29 51.19118 -0.03226 25922 ft 383 kts 333°
2026-04-22 20:29 51.21461 -0.05228 25414 ft 381 kts 333°
2026-04-22 20:29 51.23811 -0.07240 24903 ft 379 kts 333°
2026-04-22 20:30 51.26110 -0.09209 24408 ft 377 kts 334°
2026-04-22 20:30 51.28430 -0.11200 23908 ft 374 kts 334°
2026-04-22 20:30 51.30715 -0.13162 23420 ft 373 kts 334°
2026-04-22 20:30 51.32943 -0.15199 22922 ft 373 kts 328°
2026-04-22 20:31 51.34863 -0.17985 22383 ft 377 kts 312°
2026-04-22 20:31 51.36237 -0.21584 21842 ft 382 kts 296°
2026-04-22 20:31 51.36967 -0.25622 21249 ft 385 kts 284°
2026-04-22 20:31 51.37504 -0.29804 20768 ft 384 kts 284°
2026-04-22 20:32 51.38055 -0.34028 20252 ft 384 kts 284°
2026-04-22 20:32 51.38598 -0.38206 19752 ft 383 kts 284°
2026-04-22 20:32 51.39137 -0.42368 19236 ft 381 kts 283°
2026-04-22 20:32 51.39671 -0.46497 18748 ft 379 kts 283°
2026-04-22 20:33 51.40206 -0.50644 18244 ft 377 kts 283°
2026-04-22 20:33 51.40729 -0.54713 17742 ft 376 kts 283°
2026-04-22 20:33 51.41255 -0.58821 17250 ft 374 kts 283°
2026-04-22 20:33 51.41775 -0.62891 16758 ft 372 kts 282°
2026-04-22 20:34 51.42282 -0.66861 16266 ft 371 kts 281°
2026-04-22 20:34 51.42771 -0.70713 15802 ft 369 kts 281°
2026-04-22 20:34 51.43288 -0.74790 15297 ft 367 kts 281°
2026-04-22 20:34 51.43798 -0.78827 14816 ft 366 kts 281°
2026-04-22 20:35 51.44299 -0.82798 14339 ft 365 kts 281°
2026-04-22 20:35 51.44799 -0.86777 13835 ft 363 kts 280°
2026-04-22 20:35 51.45296 -0.90746 13371 ft 361 kts 280°
2026-04-22 20:35 51.45790 -0.94694 12881 ft 359 kts 280°
2026-04-22 20:36 51.46273 -0.98572 12411 ft 356 kts 280°
2026-04-22 20:36 51.46758 -1.02473 11943 ft 355 kts 280°
2026-04-22 20:36 51.47236 -1.06331 11480 ft 352 kts 280°
2026-04-22 20:36 51.47712 -1.10187 10999 ft 349 kts 280°
2026-04-22 20:37 51.48179 -1.13978 10550 ft 347 kts 280°
2026-04-22 20:37 51.48645 -1.17768 10090 ft 345 kts 280°
2026-04-22 20:37 51.49108 -1.21551 9617 ft 343 kts 280°
2026-04-22 20:37 51.49570 -1.25290 9167 ft 340 kts 280°
2026-04-22 20:38 51.50028 -1.28991 8717 ft 338 kts 280°
2026-04-22 20:38 51.50491 -1.32701 8230 ft 337 kts 281°
2026-04-22 20:38 51.51285 -1.36250 7462 ft 340 kts 298°
2026-04-22 20:38 51.52497 -1.39453 6894 ft 331 kts 303°
2026-04-22 20:39 51.54038 -1.42121 6407 ft 324 kts 328°
2026-04-22 20:39 51.56128 -1.43336 5693 ft 316 kts 359°
2026-04-22 20:39 51.58193 -1.42799 5225 ft 298 kts 23°
2026-04-22 20:39 51.60141 -1.41701 4735 ft 288 kts 24°
2026-04-22 20:40 51.61975 -1.40766 4392 ft 269 kts 22°
2026-04-22 20:40 51.63678 -1.39942 4341 ft 248 kts 22°
2026-04-22 20:40 51.65271 -1.39174 4262 ft 224 kts 23°
2026-04-22 20:40 51.66740 -1.38461 3619 ft 222 kts 24°
2026-04-22 20:41 51.68198 -1.37751 3187 ft 215 kts 24°
2026-04-22 20:41 51.69635 -1.37052 2873 ft 219 kts 24°
2026-04-22 20:41 51.71040 -1.36380 2619 ft 200 kts 24°
2026-04-22 20:41 51.72306 -1.35781 2316 ft 176 kts 25°
2026-04-22 20:42 51.73419 -1.35248 2135 ft 161 kts 26°
2026-04-22 20:42 51.74490 -1.34720 1897 ft 158 kts 26°
2026-04-22 20:42 51.75565 -1.34351 1690 ft 160 kts 19°
2026-04-22 20:42 51.76672 -1.34073 1484 ft 159 kts 18°
2026-04-22 20:43 51.77730 -1.33797 1289 ft 140 kts 18°
2026-04-22 20:43 51.78649 -1.33544 1153 ft 133 kts 20°
2026-04-22 20:43 51.79532 -1.33280 989 ft 127 kts 18°
2026-04-22 20:43 51.80405 -1.33014 836 ft 127 kts 18°
2026-04-22 20:44 51.81287 -1.32732 676 ft 126 kts 17°
2026-04-22 20:44 51.82149 -1.32471 482 ft 125 kts 15°
2026-04-22 20:44 51.82999 -1.32208 303 ft 121 kts 15°
2026-04-22 20:44 51.83766 -1.31976 266 ft 97 kts 10°
2026-04-22 20:45 51.84208 -1.31839 266 ft 19 kts 12°
2026-04-22 20:45 51.84272 -1.31809 266 ft 0 kts 28°
2026-04-22 20:45 51.84321 -1.31779 266 ft 3 kts 68°
2026-04-22 20:45 51.84324 -1.31753 266 ft 0 kts 94°
2026-04-22 20:46 51.84223 -1.31585 262 ft 16 kts 190°
2026-04-22 20:46 51.84096 -1.31626 262 ft 20 kts 188°
2026-04-22 20:46 51.83952 -1.31672 262 ft 14 kts 189°
2026-04-22 20:47 51.83941 -1.31675 262 ft 0 kts 188°
2026-04-22 20:47 51.83913 -1.31683 262 ft 14 kts 189°
2026-04-22 20:47 51.83756 -1.31730 262 ft 26 kts 198°
2026-04-22 20:48 51.83591 -1.31703 260 ft 26 kts 146°
2026-04-22 20:48 51.83458 -1.31564 257 ft 15 kts 148°
2026-04-22 20:48 51.83467 -1.31449 256 ft 15 kts 36°
2026-04-22 20:48 51.83463 -1.31369 255 ft 12 kts 185°
2026-04-22 20:49 51.83417 -1.31323 254 ft 1 kts 42°
2026-04-22 20:49 51.83420 -1.31321 254 ft 0 kts
2026-04-22 20:49 51.83436 -1.31319 254 ft 0 kts